Tracking 27420 objects as of 28-May-2023
HD Live streaming from Space Station
objects crossing your sky now

STARLINK-5908

Track STARLINK-5908 now!
10-day predictions
STARLINK-5908 is classified as:


NORAD ID: 55951
Int'l Code: 2023-037AP
Perigee: 364.0 km
Apogee: 368.5 km
Inclination: 70.0 °
Period: 91.7 minutes
Semi major axis: 6737 km
RCS: Unknown
Launch date: March 17, 2023
Source: United States (US)
Launch site: AIR FORCE WESTERN TEST RANGE (AFWTR)
Your satellite tracking list
Your tracking list is empty




NASA's NSSDC Master Catalog

Two Line Element Set (TLE):
1 55951U 23037AP  23147.95746224  .00001101  00000-0  10920-4 0  9995
2 55951  69.9971 340.9099 0003280 264.7749  95.3073 15.69927521 11707
Source of the keplerian elements: AFSPC